CW9549 Weather Reports


time (UTC)temp
C
wind
direction
speed
KPH
gust
KPH
rain 1hr
cm
rain 24hr
cm
rain mn
cm
humidity
%
barometer
mb
20190419031022 30 85 8.0 11.3 0.00 0.00 0.00 40 1018.6
20190419030020 30 59 11.3 12.9 0.00 0.00 0.00 41 1018.6
20190419025017 30 65 6.4 16.1 0.00 0.00 0.00 41 1019.0
20190419024016 30 91 8.0 17.7 0.00 0.00 0.00 42 1019.3
20190419022908 30 79 4.8 17.7 0.00 0.00 0.00 43 1019.3
20190419021906 30 60 9.7 14.5 0.00 0.00 0.00 43 1019.6
20190419020832 30 100 11.3 14.5 0.00 0.00 0.00 43 1019.6
20190419015830 30 79 9.7 14.5 0.00 0.00 0.00 43 1020.0
20190419014828 30 71 9.7 14.5 0.00 0.00 0.00 44 1020.0
20190419013826 30 51 8.0 16.1 0.00 0.00 0.00 45 1020.3
20190419012823 29 53 11.3 12.9 0.00 0.00 0.00 47 1020.7
20190419011821 29 95 8.0 12.9 0.00 0.00 0.00 48 1020.7
20190419010746 28 57 6.4 16.1 0.00 0.00 0.00 49 1021.0
20190419005639 28 45 11.3 17.7 0.00 0.00 0.00 51 1021.0
20190419004532 28 52 11.3 16.1 0.00 0.00 0.00 51 1021.3
20190419003458 27 26 8.0 14.5 0.00 0.00 0.00 53 1021.0
20190419002348 27 68 11.3 17.7 0.00 0.00 0.00 53 1021.0
20190419001314 27 60 9.7 16.1 0.00 0.00 0.00 53 1021.3
20190419000312 26 53 9.7 20.9 0.00 0.00 0.00 54 1021.3
20190418235309 26 59 9.7 11.3 0.00 0.00 0.00 55 1021.3
20190418234233 25 66 8.0 11.3 0.00 0.00 0.00 57 1021.3
20190418233126 25 45 9.7 12.9 0.00 0.00 0.00 58 1021.7
20190418232052 24 75 4.8 12.9 0.00 0.00 0.00 59 1021.7
20190418231050 23 68 4.8 6.4 0.00 0.00 0.00 59 1021.7
20190418230015 22 113 6.4 9.7 0.00 0.00 0.00 60 1021.7
20190418225013 22 90 3.2 9.7 0.00 0.00 0.00 61 1021.7
20190418223939 21 106 3.2 9.7 0.00 0.00 0.00 61 1021.7
20190418222904 20 113 8.0 9.7 0.00 0.00 0.00 62 1021.7
20190418221829 20 113 3.2 11.3 0.00 0.00 0.00 63 1021.3
20190418220827 19 135 6.4 9.7 0.00 0.00 0.00 64 1021.3
20190418215826 18 135 4.8 6.4 0.00 0.00 0.00 66 1021.0
20190418214751 18 135 4.8 6.4 0.00 0.00 0.00 68 1021.0
20190418213749 17 135 3.2 6.4 0.00 0.00 0.00 69 1021.0
20190418212747 16 135 3.2 6.4 0.00 0.00 0.00 70 1021.0
20190418211713 16 135 6.4 9.7 0.00 0.00 0.00 71 1020.7
20190418210711 16 135 3.2 3.2 0.00 0.00 0.00 70 1020.7
20190418205636 16 135 0.0 1.6 0.00 0.00 0.00 70 1020.3
20190418204528 16 135 0.0 0.0 0.00 0.00 0.00 70 1020.0
20190418203421 16 135 0.0 0.0 0.00 0.00 0.00 70 1020.0
20190418202346 16 135 0.0 0.0 0.00 0.00 0.00 70 1019.6
20190418201312 16 135 1.6 1.6 0.00 0.00 0.00 69 1019.6
20190418200238 16 135 0.0 0.0 0.00 0.00 0.00 70 1019.6
20190418195236 16 135 1.6 1.6 0.00 0.00 0.00 69 1019.3
20190418194129 16 135 0.0 3.2 0.00 0.00 0.00 69 1019.3
20190418193127 16 135 1.6 4.8 0.00 0.00 0.00 69 1019.0
20190418192020 16 135 0.0 3.2 0.00 0.00 0.00 68 1019.0
20190418190945 16 135 0.0 4.8 0.00 0.00 0.00 68 1019.0
20190418185910 16 135 1.6 4.8 0.00 0.00 0.00 68 1019.0
20190418184908 17 135 0.0 0.0 0.00 0.00 0.00 67 1018.6
20190418183657 17 135 0.0 0.0 0.00 0.00 0.00 67 1018.6
20190418182654 17 135 1.6 1.6 0.00 0.00 0.00 67 1018.3
20190418181652 17 135 0.0 0.0 0.00 0.00 0.00 66 1018.3
20190418180336 17 135 0.0 0.0 0.00 0.00 0.00 66 1018.3
20190418175301 17 135 0.0 3.2 0.00 0.00 0.00 66 1018.3
20190418174227 17 135 0.0 0.0 0.00 0.00 0.00 66 1018.3
20190418173152 17 135 0.0 0.0 0.00 0.00 0.00 66 1018.3
20190418172151 17 135 0.0 1.6 0.00 0.00 0.00 66 1018.3
20190418171149 17 135 3.2 3.2 0.00 0.00 0.00 65 1018.3
20190418170114 18 135 0.0 8.0 0.00 0.00 0.00 65 1018.3
20190418165112 18 135 6.4 6.4 0.00 0.00 0.00 65 1018.3
20190418164037 18 135 0.0 0.0 0.00 0.00 0.00 65 1018.3
20190418163003 18 135 0.0 0.0 0.00 0.00 0.00 65 1018.3
20190418161823 18 135 0.0 0.0 0.00 0.00 0.00 65 1018.6
20190418160821 18 135 0.0 0.0 0.00 0.00 0.00 65 1018.3
20190418155820 18 135 0.0 0.0 0.00 0.00 0.00 64 1019.0
20190418154817 18 135 0.0 3.2 0.00 0.00 0.00 64 1019.0
20190418153815 18 135 0.0 0.0 0.00 0.00 0.00 63 1019.0
20190418152603 18 135 0.0 0.0 0.00 0.00 0.00 63 1019.0
20190418151601 18 135 0.0 0.0 0.00 0.00 0.00 63 1019.0
20190418150559 18 135 0.0 0.0 0.00 0.00 0.00 62 1019.0
20190418145556 19 135 1.6 1.6 0.00 0.00 0.00 62 1019.0
20190418143235 20 135 0.0 0.0 0.00 0.00 0.00 61 1019.3
20190418142234 20 135 0.0 0.0 0.00 0.00 0.00 61 1019.3
20190418141232 20 135 0.0 0.0 0.00 0.00 0.00 60 1019.3
20190418140230 20 135 0.0 0.0 0.00 0.00 0.00 60 1019.6
20190418135228 20 135 0.0 0.0 0.00 0.00 0.00 60 1019.6
20190418134120 20 135 0.0 0.0 0.00 0.00 0.00 60 1020.0
20190418133013 20 135 0.0 1.6 0.00 0.00 0.00 59 1020.0
20190418132011 20 135 6.4 6.4 0.00 0.00 0.00 59 1020.0
20190418130904 20 135 0.0 3.2 0.00 0.00 0.00 58 1020.0
20190418125902 21 135 0.0 0.0 0.00 0.00 0.00 58 1020.0
20190418124755 21 135 0.0 0.0 0.00 0.00 0.00 57 1020.0
20190418123647 21 135 0.0 0.0 0.00 0.00 0.00 57 1020.0
20190418122644 21 135 0.0 0.0 0.00 0.00 0.00 57 1020.3
20190418121642 21 135 1.6 3.2 0.00 0.00 0.00 56 1020.0
20190418120640 22 135 0.0 0.0 0.00 0.00 0.00 56 1020.0
20190418115638 22 135 0.0 4.8 0.00 0.00 0.00 57 1020.0
20190418114636 22 135 3.2 4.8 0.00 0.00 0.00 56 1020.0
20190418113634 23 135 1.6 1.6 0.00 0.00 0.00 54 1020.0
20190418112600 23 135 1.6 3.2 0.00 0.00 0.00 52 1020.0
20190418111558 23 135 3.2 6.4 0.00 0.00 0.00 52 1019.6
20190418110556 22 135 3.2 4.8 0.00 0.00 0.00 53 1019.6
20190418105521 22 135 3.2 4.8 0.00 0.00 0.00 54 1019.3
20190418104519 22 135 4.8 4.8 0.00 0.00 0.00 54 1019.3
20190418103517 22 135 1.6 4.8 0.00 0.00 0.00 54 1019.6
20190418102515 22 135 1.6 4.8 0.00 0.00 0.00 53 1019.3
20190418101513 22 135 1.6 6.4 0.00 0.00 0.00 52 1019.3
20190418100510 23 135 1.6 3.2 0.00 0.00 0.00 52 1019.3
20190418095508 23 135 1.6 4.8 0.00 0.00 0.00 51 1019.0
20190418094506 23 135 3.2 4.8 0.00 0.00 0.00 51 1019.0
20190418093504 23 135 3.2 6.4 0.00 0.00 0.00 51 1019.0
20190418092502 23 135 1.6 4.8 0.00 0.00 0.00 50 1018.6
20190418091500 24 135 1.6 3.2 0.00 0.00 0.00 49 1018.6
20190418090458 25 135 3.2 3.2 0.00 0.00 0.00 48 1018.6
20190418085456 25 135 1.6 3.2 0.00 0.00 0.00 47 1018.6
20190418084453 25 135 4.8 6.4 0.00 0.00 0.00 45 1018.3
20190418083313 25 135 6.4 8.0 0.00 0.00 0.00 45 1018.3
20190418082239 26 135 1.6 4.8 0.00 0.00 0.00 44 1018.3
20190418081204 26 135 1.6 4.8 0.00 0.00 0.00 42 1017.9
20190418080057 27 135 3.2 6.4 0.00 0.00 0.00 40 1017.9
20190418075054 27 135 9.7 12.9 0.00 0.00 0.00 39 1017.9
20190418074052 27 135 9.7 11.3 0.00 0.00 0.00 38 1017.6
20190418073051 28 135 9.7 14.5 0.00 0.00 0.00 38 1017.6
20190418072049 28 113 6.4 19.3 0.00 0.00 0.00 38 1017.6
20190418071047 28 135 16.1 27.4 0.00 0.00 0.00 37 1017.6
20190418070012 29 106 8.0 19.3 0.00 0.00 0.00 37 1017.3
20190418064937 29 143 12.9 17.7 0.00 0.00 0.00 38 1017.3
20190418063935 29 135 11.3 17.7 0.00 0.00 0.00 38 1017.3
20190418062829 29 129 12.9 17.7 0.00 0.00 0.00 37 1017.3
20190418061722 29 123 9.7 17.7 0.00 0.00 0.00 36 1017.3
20190418060648 29 135 9.7 16.1 0.00 0.00 0.00 37 1017.3
20190418055646 29 135 9.7 17.7 0.00 0.00 0.00 37 1017.3
20190418054643 30 135 9.7 17.7 0.00 0.00 0.00 38 1017.3
20190418053641 30 135 11.3 22.5 0.00 0.00 0.00 37 1017.3
20190418052638 30 143 12.9 14.5 0.00 0.00 0.00 37 1017.3
20190418051531 30 135 9.7 19.3 0.00 0.00 0.00 37 1017.3
20190418050529 29 80 4.8 19.3 0.00 0.00 0.00 37 1017.3
20190418045422 29 127 11.3 22.5 0.00 0.00 0.00 40 1017.6
20190418044420 29 135 9.7 16.1 0.00 0.00 0.00 40 1017.6
20190418043418 30 125 6.4 14.5 0.00 0.00 0.00 39 1017.6
20190418042416 30 132 8.0 17.7 0.00 0.00 0.00 39 1017.6
20190418041309 30 91 9.7 24.1 0.00 0.00 0.00 39 1017.6
20190418040306 30 79 12.9 17.7 0.00 0.00 0.00 39 1017.6
20190418035304 30 113 11.3 14.5 0.00 0.00 0.00 40 1017.9
20190418034157 30 119 6.4 17.7 0.00 0.00 0.00 40 1017.9
20190418033155 30 110 11.3 12.9 0.00 0.00 0.00 41 1017.9
20190418032120 30 75 11.3 19.3 0.00 0.00 0.00 39 1018.3